Vertical_Velocity
-2 -1 -1 3 1 1 4 -0 -4 1 0 3 3 -0 1 -1 -0 3 9 20 -5 -0 2 3 6 3 -0 1 2 7 -10 -9 3 8 8 13 -1 -1 2 -1 -3 -1 4 2 0
-1 1 1 2 1 0 -2 -3 1 1 2 2 0 4 -2 -5 -1 12 4 0 -3 -4 5 2 7 5 -6 4 -2 -6 -16 8 8 8 5 5 3 -1 -2 4 -2 0 2 -2 4
-1 -1 -1 2 3 -2 -1 1 2 2 0 -0 -1 1 -1 -7 1 13 -0 -0 -4 -4 11 2 3 2 -5 1 -6 -3 -15 6 6 4 5 2 1 -1 -4 -2 7 16 6 8 3
2 -0 2 1 -1 -3 -2 -4 -0 -0 3 -2 1 2 -6 -3 4 5 4 0 -2 -3 3 7 2 -3 3 -11 6 -11 5 4 8 3 4 -1 -4 -8 -2 7 2 4 1 -4 -2
2 -2 -0 4 -0 0 1 -1 -1 5 1 -4 -2 1 -4 -6 21 1 2 10 -1 2 1 5 -1 5 -8 1 9 -6 6 5 6 3 0 2 4 -10 1 2 3 2 3 -1 -1
-0 1 -1 -3 -3 -1 -2 -1 4 6 1 -5 -3 3 -4 -8 13 4 1 2 -2 1 -2 2 3 8 -1 -7 -10 -0 3 7 3 -0 -2 1 7 -8 -4 2 5 2 7 4 4
2 4 0 -1 -3 -0 -0 3 3 3 0 -1 2 -1 -1 9 -2 0 -0 2 -0 3 -1 1 4 -7 11 4 6 -8 -7 10 -4 1 1 2 -3 -5 2 4 2 2 3 2 1
-1 3 0 -1 -3 -2 -2 4 1 -3 -2 0 1 -2 1 -0 -0 -6 -2 4 0 5 6 -2 5 3 2 -4 3 2 14 -0 7 -1 2 -3 -0 2 -0 -0 2 4 4 6 6
1 -3 -2 -6 -3 -2 2 1 1 -2 -3 4 1 -2 3 -1 1 -2 5 1 1 2 9 1 3 1 12 -5 0 5 0 -6 4 6 6 10 10 12 3 -1 -1 0 5 4 4
-1 -3 -3 -2 -6 -3 5 2 -1 -1 -12 -2 -1 3 -6 -1 -1 1 4 -1 -0 3 10 -1 -3 -5 5 8 -23 -25 -23 -9 -17 -6 -8 -7 9 1 4 2 11 5 1 4 6
-2 -7 -3 -4 -1 -4 3 1 8 43 -12 -4 -1 2 -3 -2 3 -4 -7 -4 1 2 -2 10 -1 -28 -12 7 45 19 -3 8 19 8 -2 8 9 13 2 6 -4 2 -5 -3 10
-2 -2 1 -4 -5 1 -4 -8 -10 -7 14 -0 -3 -4 -1 0 2 -5 1 11 3 8 7 2 -42 7 6 -0 3 2 6 1 6 8 -1 2 5 11 0 0 4 6 7 2 -5
-3 -3 -4 -0 -3 -0 -7 -4 -4 -6 2 -6 -3 -2 -1 -1 -2 -2 -0 3 7 2 -2 -8 9 22 2 6 -3 -4 -8 0 6 15 -1 2 -3 -3 -16 0 -1 -3 6 -5 -5
-7 -11 -8 -2 -0 0 -7 -4 -5 -7 -3 -4 -2 -0 1 0 -1 -2 -1 0 4 7 4 3 13 3 -4 -7 -1 -5 7 1 1 -2 -6 8 -14 -15 -4 2 -3 -3 -3 1 2
-1 -2 -1 -9 1 -8 -4 -4 -5 -6 -4 -6 -2 -0 -0 -2 -2 3 1 -2 -2 0 -2 12 17 7 -7 8 8 4 -13 4 8 3 5 -2 -9 7 4 -12 -13 -1 3 4 3
-5 -2 -2 -1 -5 -8 -5 -4 -4 -4 -4 -2 -5 -0 2 -3 1 1 2 -2 -1 -1 5 1 6 2 -6 10 -6 29 1 8 8 14 7 -5 -10 3 -17 3 16 0 2 3 2
-5 -4 -4 3 0 -6 -3 -2 -2 -5 -6 -3 0 -1 -2 2 2 4 -1 -2 -1 1 2 3 -0 4 7 4 1 0 18 29 38 30 9 9 -1 15 5 3 8 8 3 5 2
2 -1 -6 0 -4 -6 -6 -5 1 -4 -3 -0 -3 -4 -1 3 1 -2 3 -4 10 -3 14 4 -6 -7 -10 -3 -6 3 7 0 30 -3 -20 4 -31 -5 -0 -3 -4 -5 -1 -7 -8
-2 1 -1 -3 -4 -4 -7 -7 -3 -5 -4 -2 -5 -2 2 0 6 6 3 4 -0 10 0 -0 -3 -2 4 3 6 -11 -1 11 7 10 11 2 -5 8 3 4 2 4 -0 1 3
-3 -3 -0 -3 2 -2 -3 -4 -2 -2 -1 -3 -2 -3 1 0 8 5 2 0 -0 4 -9 -2 -1 -3 0 17 1 -2 5 15 -6 -2 -2 -15 -2 2 4 0 5 -1 2 -2 -6
-0 -2 1 2 0 2 -1 -1 -5 -3 -4 -3 -3 -2 -1 -0 1 6 6 10 8 -3 -4 12 12 -1 4 -3 -3 -1 6 26 18 6 -4 -7 -2 4 -2 1 1 -3 3 -1 2
-11 -6 -3 -4 -1 -0 -1 5 -1 -2 -4 -3 -3 -2 1 -1 3 -8 1 4 11 5 8 6 -2 5 3 -4 11 3 12 4 8 -7 -1 -7 -5 7 -3 4 1 2 3 1 -0
2 -7 -2 -2 -1 -2 -7 -4 1 1 -1 -1 -4 -2 -0 -2 6 -2 -3 1 4 2 5 4 9 11 7 10 7 0 -1 9 3 10 7 13 1 2 -2 -1 1 1 1 -1 -1
-3 -5 -5 -1 -2 0 -1 -0 -1 -3 -2 -2 -4 -4 -0 0 0 -0 0 -2 -1 9 4 -0 6 -4 -3 -2 0 1 4 2 2 3 6 0 1 -0 4 -1 -2 -3 1 1 4
-1 0 -5 -3 -3 -4 -4 -1 -2 2 -1 0 -3 -4 -3 1 -1 -0 -2 -2 1 8 6 4 4 10 2 3 1 5 13 5 -10 3 2 3 1 1 7 -1 -2 1 1 2 4
0 -1 -6 -0 -0 -1 -5 -4 1 1 -2 2 -0 -5 -3 1 -0 0 -0 2 -3 2 4 1 -2 8 2 -0 2 0 -2 2 3 -6 -1 -8 -6 -0 2 0 -3 -3 -3 -0 2
5 4 -2 -3 2 0 0 -4 -0 0 1 -4 1 0 -4 -1 1 0 -0 -1 -0 -0 -1 -0 -3 0 -1 0 -1 -3 -1 1 4 -2 6 -4 9 7 2 1 -1 -3 -0 -2 4
Height
5733 5722 5711 5701 5689 5679 5673 5665 5660 5655 5651 5647 5643 5640 5638 5637 5637 5638 5643 5645 5642 5647 5652 5657 5664 5668 5672 5677 5685 5689 5692 5705 5717 5724 5733 5732 5739 5745 5752 5758 5766 5774 5782 5787 5791
5722 5711 5701 5690 5680 5671 5662 5655 5649 5644 5639 5635 5630 5628 5628 5626 5626 5630 5629 5629 5630 5634 5642 5646 5652 5655 5661 5669 5673 5677 5686 5698 5708 5715 5719 5722 5727 5736 5743 5750 5759 5767 5774 5779 5786
5712 5701 5691 5679 5667 5659 5650 5644 5638 5632 5627 5623 5619 5618 5617 5616 5617 5619 5617 5618 5620 5626 5634 5636 5640 5645 5651 5659 5664 5673 5682 5690 5698 5704 5709 5712 5717 5727 5735 5743 5752 5761 5768 5776 5781
5702 5692 5680 5669 5657 5648 5641 5635 5628 5622 5616 5611 5608 5607 5605 5605 5606 5607 5609 5610 5612 5617 5623 5626 5630 5635 5644 5648 5660 5664 5672 5680 5689 5694 5699 5703 5709 5716 5726 5736 5742 5750 5756 5765 5771
5692 5680 5669 5657 5647 5638 5630 5623 5617 5610 5605 5599 5595 5594 5593 5593 5597 5593 5597 5600 5602 5605 5610 5616 5619 5627 5633 5644 5649 5653 5663 5670 5678 5684 5689 5696 5701 5707 5717 5726 5735 5742 5749 5756 5763
5682 5668 5656 5644 5636 5628 5620 5612 5604 5599 5592 5586 5579 5579 5579 5580 5583 5579 5582 5586 5590 5594 5598 5603 5610 5619 5622 5630 5635 5647 5654 5660 5668 5676 5682 5688 5693 5701 5710 5718 5727 5734 5742 5749 5757
5669 5656 5645 5635 5625 5616 5610 5601 5593 5587 5580 5572 5564 5564 5566 5569 5566 5565 5567 5575 5578 5583 5588 5593 5597 5601 5614 5619 5629 5637 5643 5649 5657 5666 5675 5681 5687 5698 5702 5711 5718 5726 5736 5743 5749
5659 5647 5634 5623 5614 5606 5599 5590 5582 5573 5565 5558 5553 5551 5553 5551 5553 5551 5553 5562 5566 5572 5579 5583 5587 5593 5600 5608 5616 5624 5630 5635 5647 5656 5665 5672 5682 5689 5696 5704 5712 5720 5728 5735 5741
5648 5636 5624 5612 5603 5596 5588 5580 5570 5557 5552 5547 5542 5537 5537 5536 5538 5539 5539 5548 5553 5561 5568 5572 5576 5583 5590 5597 5605 5610 5619 5628 5637 5648 5654 5659 5677 5681 5689 5698 5706 5714 5722 5729 5735
5637 5625 5613 5602 5593 5585 5576 5568 5561 5544 5540 5535 5529 5525 5522 5521 5521 5521 5523 5532 5538 5545 5553 5560 5566 5571 5577 5584 5590 5605 5615 5624 5631 5642 5646 5657 5669 5672 5680 5688 5698 5706 5713 5722 5729
5627 5615 5604 5592 5583 5574 5567 5561 5554 5548 5524 5524 5518 5509 5505 5506 5505 5503 5507 5514 5520 5528 5538 5547 5551 5556 5576 5586 5600 5601 5607 5616 5627 5634 5639 5651 5658 5663 5670 5679 5686 5696 5704 5713 5722
5617 5606 5595 5584 5574 5565 5555 5546 5537 5532 5523 5510 5503 5496 5490 5490 5491 5488 5493 5500 5504 5513 5521 5528 5535 5563 5568 5575 5580 5588 5598 5606 5616 5624 5630 5639 5646 5653 5659 5670 5681 5689 5697 5706 5711
5608 5597 5588 5577 5566 5556 5547 5539 5530 5521 5511 5500 5490 5485 5483 5481 5481 5480 5480 5483 5489 5494 5505 5516 5540 5547 5553 5563 5571 5579 5588 5599 5609 5618 5621 5629 5634 5642 5651 5662 5670 5680 5689 5695 5704
5600 5589 5579 5570 5560 5549 5540 5532 5522 5512 5502 5493 5485 5482 5478 5476 5476 5474 5473 5475 5478 5485 5493 5502 5519 5531 5541 5553 5565 5573 5587 5594 5601 5607 5611 5622 5626 5634 5646 5655 5663 5674 5681 5692 5700
5593 5581 5571 5561 5553 5544 5537 5526 5516 5505 5496 5488 5481 5477 5475 5476 5475 5473 5472 5470 5471 5474 5480 5491 5507 5517 5531 5553 5558 5575 5578 5587 5596 5600 5605 5610 5618 5629 5637 5646 5660 5669 5678 5686 5693
5584 5574 5564 5555 5546 5539 5530 5521 5512 5502 5491 5485 5477 5477 5476 5474 5473 5471 5468 5466 5464 5465 5471 5481 5493 5509 5525 5537 5552 5564 5573 5579 5586 5592 5593 5603 5612 5619 5632 5648 5655 5661 5668 5675 5684
5579 5568 5560 5550 5542 5533 5525 5517 5508 5496 5488 5483 5478 5476 5475 5474 5472 5469 5466 5465 5462 5462 5469 5475 5485 5501 5514 5527 5542 5552 5559 5569 5575 5578 5584 5596 5602 5617 5627 5637 5645 5652 5660 5668 5675
5571 5562 5553 5545 5536 5529 5521 5512 5503 5494 5486 5480 5477 5476 5476 5474 5472 5467 5464 5466 5466 5465 5470 5474 5481 5490 5506 5521 5536 5547 5553 5557 5562 5568 5581 5588 5594 5610 5619 5628 5635 5643 5651 5659 5667
5565 5556 5548 5539 5531 5524 5516 5507 5498 5490 5483 5479 5477 5477 5476 5475 5472 5467 5467 5468 5469 5469 5473 5475 5480 5489 5504 5518 5530 5537 5545 5554 5560 5566 5576 5583 5594 5604 5612 5620 5628 5636 5644 5653 5662
5561 5552 5543 5535 5527 5520 5512 5503 5495 5488 5483 5477 5476 5476 5476 5475 5473 5471 5468 5471 5471 5473 5473 5476 5479 5484 5502 5512 5521 5532 5544 5551 5552 5560 5569 5578 5589 5594 5606 5612 5620 5628 5637 5645 5653
5556 5548 5540 5531 5525 5518 5509 5501 5492 5486 5483 5479 5476 5476 5476 5475 5473 5472 5471 5471 5470 5473 5475 5478 5478 5482 5494 5501 5514 5527 5532 5540 5549 5557 5564 5575 5583 5588 5598 5607 5614 5621 5629 5637 5646
5550 5544 5536 5529 5523 5515 5506 5498 5491 5486 5482 5479 5477 5476 5476 5475 5474 5473 5472 5470 5470 5472 5475 5477 5480 5481 5489 5501 5512 5522 5530 5537 5545 5551 5560 5569 5579 5582 5591 5601 5607 5613 5622 5630 5638
5545 5537 5531 5524 5518 5510 5502 5495 5488 5484 5481 5478 5476 5476 5475 5475 5474 5473 5473 5472 5471 5472 5476 5477 5480 5483 5490 5499 5505 5513 5522 5530 5539 5547 5554 5563 5573 5578 5586 5595 5602 5607 5614 5623 5631
5540 5533 5527 5519 5513 5507 5500 5492 5485 5479 5477 5477 5475 5474 5473 5473 5473 5473 5473 5473 5472 5473 5474 5477 5480 5484 5491 5502 5507 5511 5518 5525 5534 5545 5553 5560 5568 5575 5581 5589 5596 5603 5609 5616 5623
5533 5527 5519 5513 5507 5502 5495 5488 5481 5479 5473 5473 5471 5470 5470 5471 5471 5472 5472 5472 5473 5473 5475 5476 5480 5484 5488 5496 5502 5510 5517 5524 5533 5542 5551 5558 5563 5569 5576 5583 5591 5597 5603 5610 5617
5528 5521 5515 5508 5501 5496 5489 5483 5478 5472 5471 5470 5469 5467 5466 5468 5469 5470 5471 5472 5472 5473 5474 5475 5480 5482 5487 5493 5500 5505 5511 5518 5528 5535 5545 5553 5559 5566 5571 5577 5584 5591 5597 5603 5610
5521 5515 5509 5504 5497 5491 5485 5478 5472 5469 5466 5465 5465 5465 5463 5463 5465 5467 5469 5470 5471 5472 5473 5476 5479 5483 5487 5492 5498 5504 5510 5516 5525 5533 5541 5546 5557 5560 5565 5571 5578 5585 5591 5598 5604